Regional Weather Roundup
Issued by NWS

Home | Current Version | Previous Version | Text Only | Print | Product List | Glossary On
Versions: 1 2 3 4 5 6 7 8 9 10 11 12 13 14 15 16 17 18 19 20 21 22 23 24 25 26 27 28 29 30 31 32 33 34 35 36 37 38 39 40 41 42 43 44 45 46 47 48 49 50
000
ASUS43 KLMK 032310
RWRKY
KENTUCKY REGIONAL WEATHER ROUNDUP
NATIONAL WEATHER SERVICE LOUISVILLE KY
700 PM EDT TUE MAY 03 2016

NOTE "FAIR" INDICATES FEW OR NO CLOUDS BELOW 12,000 FEET
WITH NO SIGNIFICANT WEATHER AND/OR OBSTRUCTIONS TO VISIBILITY.

KYZ001>023-026-027-061>063-070>075-040000-
WESTERN AND SOUTH CENTRAL KENTUCKY

CITY           SKY/WX    TMP DP  RH WIND       PRES   REMARKS
PADUCAH        CLOUDY    63  45  51 NW6       29.94F
HENDERSON      PTSUNNY   63  41  45 NW8       29.91F
OWENSBORO      MOSUNNY   63  45  51 NW9       29.92F
HOPKINSVILLE   CLOUDY    62  46  54 NW8       29.92F
BOWLING GREEN  CLOUDY    62  43  49 NW7       29.92S
GLASGOW        CLOUDY    60  45  56 NW5       29.91F
$$

KYZ024-025-028>034-038-045-046-053-040000-
NORTH CENTRAL KENTUCKY

CITY           SKY/WX    TMP DP  RH WIND       PRES   REMARKS
LOUISVILLE/SDF CLOUDY    60  44  55 NW9       29.90S
LOUISVILLE/LOU CLOUDY    59  47  64 N8        29.91S
FORT KNOX      CLOUDY    58  45  62 NW6       29.90S
$$

KYZ035>037-039>044-047>052-055>060-089>105-040000-
NORTHEAST KENTUCKY

CITY           SKY/WX    TMP DP  RH WIND       PRES   REMARKS
LEXINGTON      CLOUDY    59  48  67 NW7       29.88F
COVINGTON      CLOUDY    55  50  83 SW5       29.88S
FRANKFORT      CLOUDY    59  47  64 NW6       29.88S
$$

KYZ054-064>069-076>088-106>120-040000-
SOUTHEAST KENTUCKY

CITY           SKY/WX    TMP DP  RH WIND       PRES   REMARKS
JACKSON        CLOUDY    59  46  62 W6        29.88S
LONDON         CLOUDY    61  44  53 W9        29.89S
SOMERSET       CLOUDY    59  45  58 W7        29.91F
MIDDLESBORO    CLOUDY    63  49  60 NW7       29.88S
MONTICELLO     CLOUDY    61  48  62 W8G18     29.92S
$$





USA.gov is the U.S. government's official web portal to all federal, state and local government web resources and services.